Regional Weather Roundup
Issued by NWS

Home | Current Version | Previous Version | Text Only | Print | Product List | Glossary Off
Versions: 1 2 3 4 5 6 7 8 9 10 11 12 13 14 15 16 17 18 19 20 21 22 23 24 25 26 27 28 29 30 31 32 33 34 35 36 37 38 39 40 41 42 43 44 45 46 47 48 49 50

000
ASUS43 KIND 271509
RWRIN

WEATHER ROUNDUP FOR INDIANA
NATIONAL WEATHER SERVICE INDIANAPOLIS IN
1100 AM EDT WED JUL 27 2016

NOTE: "FAIR" INDICATES FEW OR NO CLOUDS BELOW 12,000 FEET WITH NO
SIGNIFICANT WEATHER AND/OR OBSTRUCTIONS TO VISIBILITY.

* - STATION DOES NOT REPORT WEATHER SUCH AS PRECIPITATION OR FOG.

+ - STATION NOT QUALITY CONTROLLED BY THE NATIONAL WEATHER SERVICE.
    USE DATA WITH CAUTION...ESPECIALLY DEWPOINT AND RELATIVE
    HUMIDITY OBSERVATIONS.

INZ001>003-010>013-019-020-271600-
NORTHWEST INDIANA

CITY           SKY/WX    TMP DP  RH WIND       PRES   REMARKS
GARY /AIRPORT/ MOSUNNY   82  70  65 CALM      30.02F
KNOX *+        SUNNY     79  61  53 W3        30.02F
LA PORTE +     SUNNY     83  73  71 CALM      30.03F
MICHIGAN CITY+ SUNNY     81  68  65 CALM      30.02F
MONTICELLO +   SUNNY     80  66  61 CALM      30.02S
RENSSELAER +   SUNNY     79  70  73 CALM      30.03F
VALPARAISO     SUNNY     82  66  58 SW6       30.03S

$$

LMZ046-743>745-271600-
SOUTHERN LAKE MICHIGAN

STATION/POSITION TIME  TEMP    WIND        PRES    WAVE
                       AIR SEA DIR/SP/G            HT
                 (UTC) (F)     (DEG/KT/KT) (MB)    (FT)
BURNS HARBOR     1400   75     270/  4/  5 1016.9F
MICHIGAN CITY    1400   74     230/  5/  6   N/A
5NW MICH CITY    1400   75 75  240/  4/  6   N/A     1

$$

INZ004-005-014>016-021>024-271600-
NORTH CENTRAL INDIANA

CITY           SKY/WX    TMP DP  RH WIND       PRES   REMARKS
GOSHEN         SUNNY     80  60  50 W5        30.03S
LOGANSPORT +   SUNNY     79  66  65 CALM      30.03F
PERU/GRISSOM   SUNNY     82  66  59 NW5       30.02S
ROCHESTER +    SUNNY     82  70  65 N5        30.03F
SOUTH BEND     SUNNY     81  70  69 CALM      30.03S
WARSAW +       SUNNY     79  66  65 CALM      30.03F

$$

INZ006>009-017-018-025>027-271600-
NORTHEAST INDIANA

CITY           SKY/WX    TMP DP  RH WIND       PRES   REMARKS
ANGOLA *+        N/A     82  66  57 CALM      30.03F
AUBURN +       SUNNY     81  59  47 W5        30.03F
FORT WAYNE     MOSUNNY   83  63  50 W7        30.02F
HUNTINGTON +   SUNNY     80  65  60 NE5       30.02F

$$

INZ028-029-035-036-043>045-051>053-271600-
WEST CENTRAL INDIANA

CITY           SKY/WX    TMP DP  RH WIND       PRES   REMARKS
CRAWFORDSVL +  SUNNY     79  69  71 CALM      30.03S
GREENCASTLE +  SUNNY     81  72  74 E5        30.04R
LAFAYETTE      SUNNY     81  70  69 NE6       30.01F
TERRE HAUTE    SUNNY     82  69  64 CALM      30.02S

$$

INZ030>032-037>040-046>048-054>057-064-065-271600-
CENTRAL INDIANA

CITY           SKY/WX    TMP DP  RH WIND       PRES   REMARKS
COLUMBUS       MOSUNNY  N/A N/A N/A CALM      30.03S
INDIANAPOLIS   MOSUNNY   82  65  56 CALM      30.03S
-EAGLE CREEK   SUNNY     84  64  50 N5        30.02S
KOKOMO *+      SUNNY     84  66  54 N5        30.03S
MARION +       SUNNY     80  65  61 NW3       30.03F
SHELBYVILLE    SUNNY     83  67  58 CALM      30.02S
ZIONSVILLE +   SUNNY     78  67  67 NE6       30.04S

$$

INZ033-034-041-042-049-050-058-059-271600-
EAST CENTRAL INDIANA

CITY           SKY/WX    TMP DP  RH WIND       PRES   REMARKS
MUNCIE         SUNNY     83  66  56 N5        30.03F

$$

INZ060-061-067>069-081>083-085>088-271600-
SOUTHWEST INDIANA

CITY           SKY/WX    TMP DP  RH WIND       PRES   REMARKS
EVANSVILLE     MOSUNNY   84  76  76 S7        30.00F
HUNTINGBURG *+ MOSUNNY   84  75  74 E3        30.01F
WASHINGTON +   CLOUDY    78  77  96 MISG      30.01S

$$

INZ062-063-066-070>080-084-089>092-271600-
SOUTH CENTRAL AND SOUTHEAST INDIANA

CITY           SKY/WX    TMP DP  RH WIND       PRES   REMARKS
BLOOMINGTON    CLOUDY    80  70  71 VRB5      30.04R
NORTH VERNON + CLOUDY   N/A N/A N/A CALM      30.04S
SEYMOUR +      CLOUDY    81  73  78 CALM      30.03

$$




USA.gov is the U.S. government's official web portal to all federal, state and local government web resources and services.